Simultaneous Nadir Overpasses (SNOs) Predictions

Prediction of SNOs between METOP-C and LANDSAT-8 Satellite Orbit:

Table of predicted SNOs for the next 14.0 days since TLE Epoch: 8/29/2020
Index Date (METOP-C) Time (METOP-C) Lat,Lon (METOP-C) SZA (METOP-C ) Date (LANDSAT-8) Time (LANDSAT-8) Lat,Lon (LANDSAT-8) SZA (LANDSAT-8 ) Distance(km) Time Diff (sec)
1 08/30/2020 13:04:41 -81.13,-156.24 105.51 08/30/2020 13:05:17 -81.13,-156.12 105.48 1.98 36
2 08/30/2020 13:55:20 81.16, 11.91 74.61 08/30/2020 13:54:42 81.16, 11.93 74.60 0.46 38
3 09/02/2020 08:39:01 -81.14, -89.46 104.42 09/02/2020 08:39:33 -81.15, -89.48 104.41 0.25 32
4 09/02/2020 09:29:40 81.17, 78.62 75.69 09/02/2020 09:28:58 81.17, 78.55 75.67 1.20 42
5 09/05/2020 04:13:20 -81.16, -22.70 103.32 09/05/2020 04:13:48 -81.16, -22.86 103.32 2.74 28
6 09/05/2020 05:04:00 81.17, 144.95 76.74 09/05/2020 05:03:14 81.16, 144.78 76.69 3.09 46
7 09/07/2020 23:47:42 -81.14, 43.31 102.30 09/07/2020 23:48:05 -81.14, 43.37 102.28 1.04 23
8 09/08/2020 00:38:21 81.16,-148.72 77.80 09/08/2020 00:37:30 81.17,-148.64 77.79 1.42 51
9 09/10/2020 19:22:02 -81.15, 110.07 101.17 09/10/2020 19:22:21 -81.15, 109.95 101.18 2.20 19
